Location: Baili�vre
(50.0696°N, 4.2409°E)
Time: 17:44:21
(UTC+00:00)

Cosmos 1741 Rocket - Pass Details

Date: 08 August 2020
Orbit: 761 x 783 km, 74.0° (Epoch: 25 September)

Event Time Altitude Azimuth Distance (km) Brightness Sun altitude
Exits shadow 21:48:18 35° 167° (SSE) 1,218 4.5 -19.0°
Maximum altitude 21:50:15 56° 108° (ESE) 911 4.1 -19.2°
Drops below altitude 10° 21:55:25 10° 31° (NNE) 2,329 6.9 -19.6°
Sets 21:57:51 0° 27° (NNE) 3,265 7.7 -19.8°
